Regional Weather Roundup
Issued by NWS Bismarck, ND

Home | Current Version | Previous Version | Text Only | Print | Product List | Glossary On
Versions: 1 2 3 4 5 6 7 8 9 10 11 12 13 14 15 16 17 18 19 20 21 22 23 24 25 26 27 28 29 30 31 32 33 34 35 36 37 38 39 40 41 42 43 44 45 46 47 48 49 50
324
ASUS43 KBIS 191402
RWRBIS

NWR BROADCAST TEXT
NATIONAL WEATHER SERVICE BISMARCK ND
800 AM CST THU JAN 19 2017

NOTE: "FAIR" INDICATES FEW OR NO CLOUDS BELOW 12,000 FEET WITH NO
SIGNIFICANT WEATHER AND/OR OBSTRUCTIONS TO VISIBILITY.


CITY           SKY/WX    TMP DP  RH WIND       PRES   REMARKS
WILLISTON      FAIR      17  15  92 CALM      29.49S
MINOT          FAIR      23  19  85 S7        29.48S WCI  15
MINOT AFB      FAIR      22  19  86 S5        29.47S WCI  16
BISMARCK       FAIR      11   8  88 E3        29.54S
DICKINSON      FAIR      20  14  77 SW8       29.47S WCI  10
GARRISON         N/A     14  10  84 CALM      29.50S
HETTINGER ARPT FAIR       9   5  84 W5        29.51S WCI   1
JAMESTOWN      FAIR      16  13  88 S7        29.55S WCI   6
CARRINGTON     FAIR      21  18  86 SW3       29.54S
HAZEN            N/A    N/A N/A N/A CALM      29.53S
MANDAN         FAIR      18  14  86 SE5       29.52F WCI  11
STANLEY        FAIR      21  21 100 SW3       29.49R
$$

CITY           SKY/WX    TMP DP  RH WIND       PRES   REMARKS
GRAND FORKS    CLOUDY    23  19  85 S15       29.58S WCI  10
GRAND FORKS AF MOCLDY    21  19  93 S13       29.57S FOG     WCI   9
DEVILS LAKE    FAIR      18  14  84 CALM      29.53F
FARGO          CLOUDY    28  27  96 S13       29.61S FOG     WCI  17
GRAFTON        FAIR      19  19 100 SE16      29.58S WCI   5
$$

CITY           SKY/WX    TMP DP  RH WIND       PRES   REMARKS
ABERDEEN       FOG       22  19  89 SW3       29.60F VSB 1/4
MOBRIDGE       FAIR      12   7  80 S6        29.49F WCI   3
BUFFALO          N/A     25  17  72 W8        29.44S WCI  16
RAPID CITY     FAIR      24  16  71 NW6       29.50F WCI  17
GLASGOW        FAIR      22  19  89 S10       29.45F WCI  11
SIDNEY         FAIR      18  14  84 SW12      29.49S WCI   5
WOLF POINT     FAIR      11   6  81 CALM      29.48S
GLENDIVE       FAIR      15  12  88 S9        29.50S WCI   3
MILES CITY     FAIR      19  14  81 SE5       29.51S WCI  12
BAKER          FAIR      17  12  80 CALM      29.51R
$$

CITY           SKY/WX    TMP DP  RH WIND       PRES   REMARKS
BILLINGS       MOCLDY    34  20  56 SW14      29.51S
GREAT FALLS    FAIR      39  26  59 S15       29.45S
$$





USA.gov is the U.S. government's official web portal to all federal, state and local government web resources and services.